SCP
0 0 0 0 0 0 0 0 0 0 0 0 0 0 0 0 0 0 0 0 0 0 0 1 1 1 1 1 1 1 1 1 1 1 1 1 1 1 1 1 1 1 1
0 0 0 0 0 0 0 0 0 0 0 0 0 0 0 0 0 0 0 0 0 0 0 1 1 1 1 1 1 1 1 1 1 1 1 1 1 1 1 1 1 1 1
0 0 0 0 0 0 0 0 0 0 0 0 0 0 0 0 0 0 0 0 0 0 0 0 0 1 1 1 1 1 1 1 1 1 1 1 1 1 1 1 1 1 1
0 0 0 0 0 0 0 0 0 0 0 0 0 0 0 0 0 0 0 0 0 0 0 0 0 0 0 1 1 1 1 1 1 1 1 1 1 1 1 1 1 1 1
0 0 0 0 0 0 0 0 0 0 0 0 0 0 0 0 0 0 0 0 0 0 0 0 0 0 0 1 1 1 1 1 1 1 1 1 1 1 1 1 1 1 1
0 0 0 0 0 0 0 0 0 0 0 0 0 0 0 0 0 0 0 0 0 0 0 0 0 0 0 0 1 1 1 1 1 1 1 1 1 1 1 1 1 1 1
0 0 0 0 0 0 0 0 0 0 0 0 0 0 0 0 0 0 0 0 0 0 0 0 0 0 0 0 0 1 1 1 1 1 1 1 1 1 1 1 1 1 1
0 0 0 0 0 0 0 0 0 0 0 0 0 0 0 0 0 0 0 0 0 0 0 0 0 0 0 0 0 0 1 1 1 1 1 1 0 0 1 1 1 1 1
0 0 0 0 0 0 0 0 0 0 0 0 0 0 0 0 0 0 0 0 0 0 0 0 0 0 0 0 0 0 0 1 1 1 0 0 0 0 0 1 1 1 1
0 0 0 0 0 0 0 0 0 0 0 0 0 0 0 0 0 0 0 0 0 0 0 0 0 0 0 0 0 0 0 1 1 0 0 0 0 0 0 0 1 1 1
0 0 0 0 0 0 0 0 0 0 0 0 0 0 0 0 0 0 0 0 0 0 0 0 0 0 0 0 0 0 0 0 0 0 0 0 0 0 0 0 0 1 1
0 0 0 0 0 0 0 0 0 0 0 0 0 0 0 0 0 0 0 0 0 0 0 0 0 0 0 0 0 0 0 0 0 0 0 0 0 0 0 0 0 1 1
0 0 0 0 0 0 0 0 0 0 0 0 0 0 0 0 0 0 0 0 0 0 0 0 0 0 0 0 0 0 0 0 0 0 0 0 0 0 0 0 0 0 0
0 0 0 0 0 0 0 0 0 0 0 0 0 0 0 0 0 0 0 0 0 0 0 0 0 0 0 0 0 0 0 0 0 0 0 0 0 0 0 0 0 0 0
0 0 0 0 0 0 0 0 0 0 0 0 0 0 0 0 0 0 0 0 0 0 0 0 0 0 0 0 0 0 0 0 0 0 0 0 0 0 0 0 0 0 0
0 0 0 0 0 0 0 0 0 0 0 0 0 0 0 0 0 0 0 0 0 0 0 0 0 0 0 0 0 0 0 0 0 0 0 0 0 0 0 0 0 0 0
0 0 0 0 0 0 0 0 0 0 0 0 0 0 0 0 0 0 0 0 0 0 0 0 0 0 0 0 0 0 0 0 0 0 0 0 0 0 0 0 0 0 0
0 0 0 0 0 0 0 0 0 0 0 0 0 0 0 0 0 0 0 0 0 0 0 0 0 0 0 0 0 0 0 0 0 0 0 0 0 0 0 0 0 0 0
0 0 0 0 0 0 0 0 0 1 0 0 0 0 0 0 0 0 0 0 0 0 0 0 0 0 0 0 0 0 0 0 0 0 0 0 0 0 0 0 0 0 0
0 0 0 0 0 0 0 1 1 1 1 0 0 0 0 0 0 0 0 0 0 0 0 0 0 0 0 0 0 0 0 0 0 0 0 0 0 0 0 0 0 0 0
0 0 0 0 0 1 1 1 1 1 0 0 0 0 0 0 0 0 0 0 0 0 0 0 0 0 0 0 0 0 0 0 0 0 0 0 0 0 0 0 0 0 0
0 0 0 0 0 0 0 0 0 0 0 0 0 0 0 0 0 0 0 0 0 0 0 0 0 0 0 0 0 0 0 0 0 0 0 0 0 0 0 0 0 0 0
0 0 0 0 0 0 0 0 0 0 0 0 0 0 0 0 0 0 0 0 0 0 0 0 0 0 0 0 0 0 0 0 0 0 0 0 0 0 0 0 0 0 0
0 0 0 0 0 0 0 0 0 0 0 0 0 0 0 0 0 0 0 0 0 0 0 0 0 0 0 0 0 0 0 0 0 0 0 0 0 0 0 0 0 0 0
0 0 0 0 0 0 0 0 0 0 0 0 0 0 0 0 0 0 0 0 0 0 0 0 0 0 0 0 0 0 0 0 0 0 0 0 0 0 0 0 0 0 0
0 0 0 0 0 0 0 0 0 0 0 0 0 0 0 0 0 0 0 0 0 0 0 0 0 0 0 0 0 0 0 0 0 0 0 0 0 0 0 0 0 0 0
Wind_Speed
2 2 1 1 1 1 1 1 2 2 2 1 1 2 2 2 2 2 2 4 4 4 4 4 3 2 2 2 2 2 2 3 3 3 3 3 4 4 4 4 4 4 5
2 2 2 1 1 1 1 2 2 2 1 1 1 1 1 1 2 2 1 2 4 3 3 3 4 4 4 3 3 2 2 3 3 3 3 3 4 4 4 4 4 5 5
3 2 2 2 2 2 2 2 2 2 2 1 1 1 1 1 2 2 1 1 1 3 3 3 3 3 3 3 4 4 3 3 3 3 3 4 4 4 5 5 5 5 6
3 3 2 2 2 1 1 2 2 2 1 1 0 0 0 1 1 1 1 1 1 1 2 3 4 4 4 4 4 4 4 4 4 5 5 4 4 5 5 5 5 6 6
2 2 2 2 2 2 1 2 2 2 2 1 0 0 0 0 0 1 1 1 1 1 0 2 3 4 5 5 5 5 5 5 5 5 5 5 5 5 5 6 6 6 6
2 2 2 2 3 2 2 2 2 1 2 2 1 1 1 1 0 1 1 1 0 1 0 0 1 3 5 6 6 6 5 5 5 6 6 6 6 6 6 7 6 7 7
3 3 2 2 2 3 3 3 2 2 1 2 2 1 2 1 1 1 1 1 1 1 0 1 1 1 2 5 6 6 7 6 7 7 7 7 7 7 7 7 7 8 8
3 3 3 3 3 2 3 3 3 2 1 1 2 1 1 2 1 1 1 1 1 1 1 1 1 1 1 1 4 6 7 7 7 7 7 7 7 8 8 8 8 9 9
2 2 3 3 3 3 3 4 4 4 3 1 1 3 3 3 1 2 1 1 1 1 1 1 1 1 2 2 2 5 6 7 8 7 7 8 8 8 9 9 9 9 9
2 2 2 3 3 3 3 3 3 3 3 3 1 1 2 2 2 1 2 1 1 2 2 2 2 2 2 2 2 4 5 6 6 7 8 8 9 9 10 10 10 10 10
1 2 2 3 3 3 3 3 3 3 3 3 3 2 1 1 1 2 3 2 2 2 2 2 2 2 2 2 2 3 5 5 6 7 8 9 9 10 10 11 11 11 11
2 2 2 2 3 2 3 3 3 4 3 3 3 2 3 3 3 3 3 3 3 2 2 2 2 2 2 2 3 4 5 6 7 8 8 9 9 10 11 12 12 12 12
2 3 3 3 2 3 3 3 3 3 4 4 4 3 3 3 2 2 2 2 3 2 2 2 3 3 2 2 3 4 5 7 8 8 8 9 10 10 11 12 12 12 12
4 3 3 3 3 3 3 3 3 3 3 4 4 4 3 3 2 3 3 2 2 3 3 4 2 3 2 2 3 3 4 6 7 8 9 10 10 11 11 12 12 12 12
3 4 4 4 3 3 3 3 3 3 3 4 4 4 3 3 2 2 2 3 3 3 4 4 3 2 2 2 3 2 3 6 7 8 9 10 10 11 11 11 12 12 13
3 4 4 4 3 3 3 3 3 3 3 3 3 3 3 2 2 2 2 2 3 4 4 3 3 2 2 3 4 2 3 6 7 8 9 10 10 11 11 12 13 13 13
4 4 4 4 4 4 3 3 3 3 4 3 3 3 4 3 2 2 2 2 3 3 5 4 2 2 2 3 3 2 3 3 4 8 10 10 10 11 12 13 13 13 13
4 4 4 4 4 3 3 4 4 4 4 4 4 3 4 3 3 2 2 3 3 3 4 6 4 3 3 3 2 3 3 3 4 8 10 10 11 11 12 12 13 13 13
3 3 4 4 4 4 4 4 4 4 4 4 4 4 4 4 4 3 3 3 3 3 3 4 4 3 2 2 2 3 4 3 4 6 9 10 11 12 12 12 13 13 13
3 3 4 4 4 4 4 4 4 4 4 4 4 4 4 5 5 5 4 4 3 3 2 3 4 3 3 2 2 3 4 3 4 4 7 8 10 12 13 13 13 13 13
3 3 3 3 3 4 4 4 4 4 4 3 3 4 4 5 5 4 3 3 3 3 3 3 4 3 3 2 3 2 5 5 5 3 4 5 6 6 7 10 12 12 13
2 2 3 3 4 3 4 5 4 3 3 4 4 3 3 4 5 6 5 5 4 4 4 4 4 5 5 4 3 3 4 4 5 2 3 6 4 6 6 5 10 13 13
2 3 3 3 3 4 5 5 5 3 4 4 4 3 3 3 4 4 5 6 5 6 6 4 5 6 5 4 4 4 5 5 7 4 3 6 4 7 6 7 13 14 14
3 3 3 4 4 4 5 5 5 4 4 4 4 4 4 4 4 4 4 4 4 5 5 5 5 5 4 4 4 5 6 6 6 4 3 6 5 5 5 6 12 14 14
3 3 3 3 4 4 5 6 5 3 3 4 4 4 4 4 5 6 4 4 5 5 5 6 7 7 7 7 4 2 2 3 5 5 2 4 4 5 6 5 7 12 13
3 3 3 3 4 4 6 6 5 3 3 3 3 4 5 5 6 6 4 4 5 5 3 3 4 6 5 5 5 3 3 3 4 5 3 3 3 3 5 4 4 4 6
Wind_Direction
170 164 159 163 164 141 152 139 123 117 105 95 95 95 94 102 92 72 39 46 52 47 42 36 29 32 30 23 19 15 3 356 348 342 335 334 332 330 331 335 335 333 329
173 169 172 181 176 170 166 157 148 137 123 110 103 121 127 114 96 92 77 38 36 40 32 30 29 25 18 7 354 344 339 333 318 319 326 329 330 325 321 325 327 328 328
179 175 175 185 192 173 151 146 133 123 115 97 98 116 119 120 121 113 106 83 16 21 21 12 10 5 358 353 353 344 334 328 320 310 308 310 313 309 305 304 310 314 314
180 173 174 188 177 151 146 154 142 125 117 128 131 55 96 124 133 132 121 111 82 23 7 11 1 349 335 329 325 326 330 334 329 325 316 306 302 303 300 301 303 305 306
173 171 178 178 164 153 152 157 140 143 144 146 149 86 88 146 181 139 146 138 129 101 9 348 349 345 330 319 316 314 320 324 330 326 327 313 303 300 302 300 301 302 302
180 174 177 176 168 161 164 160 153 145 147 146 99 42 355 282 247 204 203 180 171 183 208 303 326 333 329 320 318 316 321 323 324 324 319 315 305 302 304 300 296 296 298
185 176 175 169 175 180 183 173 157 155 147 128 105 20 350 327 276 260 226 195 233 235 202 240 254 281 316 315 316 314 317 322 321 321 318 321 319 309 304 298 295 294 296
193 184 179 182 181 182 180 175 165 161 167 157 151 136 326 329 332 278 218 210 245 256 249 250 239 250 274 289 313 313 314 315 318 318 323 322 320 319 309 304 304 300 295
194 190 186 184 183 181 196 192 182 172 181 202 175 164 174 220 289 306 267 229 238 238 255 251 244 252 259 264 282 297 305 310 315 320 320 322 319 315 318 309 306 305 305
202 190 184 183 188 186 198 202 190 184 176 194 211 235 212 171 174 269 305 293 262 242 249 260 258 256 259 256 279 297 304 308 312 317 317 315 316 310 311 310 301 300 301
218 195 188 185 191 191 196 197 192 189 191 194 195 193 209 226 197 195 254 277 290 266 256 250 245 251 262 257 256 286 298 299 303 306 309 309 309 306 304 308 299 295 295
225 222 206 198 198 199 197 202 202 198 201 202 204 197 190 192 199 198 227 249 260 268 263 249 240 246 251 253 263 287 290 294 295 297 299 302 302 304 302 304 297 292 293
223 227 214 208 209 212 202 195 199 206 203 204 212 218 217 219 203 196 210 238 255 271 268 257 239 241 249 251 252 280 286 290 292 295 297 300 300 301 300 300 297 292 292
219 216 206 209 212 210 203 192 196 209 200 207 219 218 221 227 217 210 200 201 253 272 259 257 258 243 247 249 256 275 273 291 292 295 298 299 298 298 297 296 296 292 291
208 203 201 204 209 206 203 193 200 214 207 215 221 221 224 233 226 225 216 206 207 249 265 248 248 257 258 257 269 253 261 291 294 296 297 297 298 297 295 295 297 293 290
203 199 198 199 202 202 202 196 200 210 210 223 221 221 228 232 229 227 224 228 222 224 252 252 243 258 265 280 287 272 269 299 293 294 294 294 295 294 293 293 293 293 291
198 198 199 197 200 202 200 199 206 206 213 226 224 221 232 224 220 226 224 227 229 218 249 271 262 257 244 266 291 282 274 278 289 293 292 291 293 292 292 291 290 292 292
198 198 195 197 201 203 203 203 209 212 217 224 226 222 233 222 221 224 223 230 234 225 233 262 270 263 250 259 278 286 293 294 286 291 293 290 292 293 292 290 288 290 292
201 198 195 201 206 207 210 214 213 218 222 226 224 221 227 216 226 229 227 231 237 241 238 250 271 271 268 280 294 294 290 284 289 291 290 288 290 291 289 288 288 289 289
202 207 208 211 213 213 214 216 218 221 224 229 229 226 223 220 224 223 226 228 231 237 241 251 266 276 277 287 291 289 297 289 289 291 290 290 292 290 286 284 285 286 286
211 212 212 215 216 218 219 215 217 220 221 229 234 232 230 228 228 228 229 224 221 229 234 246 260 270 270 280 277 279 283 298 286 268 290 284 284 279 278 278 278 279 281
217 208 214 217 220 226 230 222 215 218 220 224 234 239 238 225 228 231 235 235 228 228 229 234 247 253 264 264 267 270 279 295 288 266 283 281 268 272 273 262 275 277 278
209 212 222 226 237 243 237 231 226 224 225 228 231 233 240 240 231 231 232 237 244 248 239 233 241 250 259 253 252 263 264 264 266 276 289 278 268 268 272 275 279 276 277
218 224 229 230 239 249 243 239 234 225 228 232 234 233 234 235 233 225 218 230 243 248 249 244 243 251 253 249 239 246 256 269 276 268 252 268 276 273 282 277 276 273 278
230 232 235 235 241 249 241 238 230 229 232 238 240 239 237 237 240 231 222 234 251 259 262 257 261 265 267 269 269 261 259 269 274 268 240 259 276 289 284 272 271 274 279
236 236 241 239 242 251 249 240 229 226 235 243 245 241 238 238 244 234 226 228 244 255 251 265 268 274 272 271 264 237 229 242 263 268 232 242 266 299 295 277 272 276 279